Dewpoint
37 37 37 37 37 37 37 37 38 38 38 38 39 41 42 42 43 42 38 40 37 33 32 34 34 32 30 31 29 28 29 29 29 26 24 20 22 21 20 19 19 18 17 17 17 18 16 21 20 18 19 21 21 40
37 37 37 37 37 37 37 37 37 37 37 37 38 38 39 40 41 42 36 39 41 37 33 36 36 36 36 34 33 32 31 31 33 30 30 29 22 22 22 18 22 19 22 21 23 20 26 26 26 26 26 32 35 41
38 38 38 37 37 37 37 37 36 36 36 37 37 38 38 38 39 39 36 38 38 33 34 33 32 34 36 37 37 33 34 34 34 35 32 30 25 28 23 23 23 23 24 25 28 28 26 28 29 27 26 28 36 40
38 36 37 37 38 37 37 37 36 37 37 36 36 37 37 38 38 39 35 36 38 35 29 27 29 30 35 35 36 38 36 36 37 37 32 31 28 31 24 26 25 26 30 28 27 30 31 31 33 33 30 32 33 38
38 38 39 39 39 39 39 39 38 38 37 36 37 37 36 37 37 37 36 38 38 34 24 25 32 32 32 33 33 35 37 36 35 31 30 28 30 30 30 29 25 26 25 25 23 25 33 35 37 39 39 39 42 38
34 34 34 35 37 38 39 39 38 38 39 36 36 37 37 36 37 36 33 38 39 40 34 28 33 32 29 32 35 37 36 37 37 32 32 34 32 32 29 24 24 25 26 28 28 34 36 35 39 38 40 40 43 42
33 33 32 33 34 34 34 35 37 38 38 37 38 38 38 37 35 31 30 38 42 41 32 28 25 34 37 36 36 36 38 35 33 32 31 33 31 33 30 25 25 25 25 28 31 35 34 35 35 38 40 42 44 43
32 33 32 32 32 32 34 34 33 35 38 38 38 38 39 38 37 33 35 38 39 38 36 28 25 27 36 33 32 36 33 33 33 32 34 30 27 28 25 25 27 27 27 27 31 36 34 38 39 39 39 40 41 41
32 34 32 33 32 32 32 32 32 33 35 38 38 39 38 36 34 37 41 43 41 37 27 27 23 17 37 34 35 33 34 29 34 30 31 28 25 24 28 26 25 25 26 31 34 37 36 37 37 40 41 39 40 40
31 32 32 33 34 34 35 35 34 32 34 38 37 35 33 38 41 41 36 36 37 36 36 30 28 25 29 28 33 32 32 30 27 29 29 28 26 26 26 26 26 27 34 35 34 34 35 35 37 38 40 34 37 41
31 32 30 32 33 32 34 35 35 32 36 34 35 34 34 38 33 32 26 28 28 28 31 30 28 26 35 30 30 32 31 32 26 26 28 28 26 32 34 34 34 35 36 36 36 38 38 38 37 37 36 38 38 39
32 32 32 32 32 33 33 33 34 33 35 34 33 32 32 31 29 27 24 28 27 24 31 28 30 31 31 33 28 28 29 30 23 32 29 23 29 33 33 32 34 35 37 37 37 37 37 37 37 36 36 36 36 35
31 31 32 31 31 33 34 34 34 33 35 32 30 28 30 27 24 24 15 22 21 25 29 27 26 29 31 31 29 29 28 25 31 28 23 28 32 31 32 34 35 35 35 34 34 34 34 34 34 34 33 34 34 34
31 31 32 32 33 34 34 34 32 34 32 27 28 23 24 21 24 24 23 23 26 27 28 28 26 28 29 29 27 26 27 29 22 16 24 31 31 32 34 36 35 34 33 33 32 32 32 32 32 32 32 33 34 33
31 32 33 34 34 35 33 34 34 34 30 25 24 21 24 26 27 27 28 28 29 29 27 26 26 28 27 27 27 24 22 21 23 22 30 32 33 35 33 32 33 32 31 32 32 32 32 32 32 31 32 33 33 33
32 32 29 32 30 30 32 32 32 33 31 24 21 23 28 26 27 30 28 28 32 29 29 27 24 22 23 24 23 19 19 18 23 29 30 33 33 33 32 34 33 33 32 32 32 32 32 31 31 31 32 32 32 32
30 29 30 30 33 34 34 32 29 28 26 22 21 26 24 24 24 30 30 31 33 29 25 26 21 19 23 21 19 21 19 25 29 29 31 34 33 32 32 32 33 33 32 32 32 32 31 31 31 31 30 31 32 32
29 30 29 29 30 29 29 31 29 25 19 21 20 22 27 28 28 28 31 33 31 30 28 25 26 21 17 17 18 25 26 27 28 30 30 33 36 34 35 34 34 34 32 31 31 31 31 30 30 30 30 31 31 32
29 30 29 28 29 27 25 25 27 20 19 24 25 26 26 26 27 30 31 32 32 31 29 27 24 23 22 25 26 26 27 26 24 29 30 32 33 34 35 34 33 32 32 31 31 31 31 30 30 30 31 31 31 32
30 32 31 31 30 27 21 22 29 26 21 22 23 23 23 25 26 28 30 31 30 30 27 27 24 25 26 28 29 31 33 31 29 28 31 32 33 32 32 32 32 32 32 30 30 30 29 29 29 31 31 31 31 31
29 29 30 29 27 26 24 19 18 20 24 22 24 25 25 27 25 26 27 30 28 26 25 26 27 28 32 32 34 35 33 31 29 28 28 31 33 33 33 32 32 31 30 29 29 29 30 29 30 31 32 32 32 32
27 29 28 27 26 24 26 23 19 18 16 18 18 18 18 18 21 24 29 27 26 27 28 28 28 28 30 33 33 35 33 33 33 30 29 33 32 33 31 32 32 31 30 30 30 30 30 29 30 31 31 32 32 32
28 28 28 25 22 21 18 21 18 18 18 18 18 15 16 17 20 24 22 27 27 30 30 29 29 30 31 34 35 36 35 34 31 30 31 34 33 32 32 32 32 30 29 29 30 30 29 29 29 29 30 30 31 32
30 27 22 19 19 10 21 15 17 14 14 13 12 14 16 16 20 20 18 21 26 29 29 29 29 29 31 32 33 33 34 34 33 30 32 32 30 32 31 30 31 30 30 29 31 31 30 30 30 29 29 29 29 30
22 22 23 18 19 14 12 12 12 11 10 11 11 14 16 23 16 15 13 22 25 30 29 30 30 30 30 29 31 31 35 33 32 31 32 32 32 31 30 31 31 32 32 30 30 30 30 30 30 29 29 29 28 27
14 16 15 17 17 13 11 6 7 10 13 10 14 18 23 19 10 15 20 20 22 24 23 30 30 31 32 32 32 31 34 34 33 32 32 32 32 31 31 31 30 31 33 32 30 30 29 29 30 29 29 29 28 27
14 14 21 22 20 19 20 20 19 17 14 16 19 21 21 16 11 18 21 23 23 25 26 29 33 32 31 31 32 32 34 33 32 31 31 31 31 32 32 31 30 30 33 33 32 30 29 29 29 29 29 29 29 29
19 13 7 15 15 19 12 16 15 17 15 17 18 15 12 13 12 21 23 25 27 28 27 26 27 29 29 29 30 31 31 31 30 29 29 29 30 30 30 30 30 30 31 32 32 33 32 31 30 30 30 30 30 31
17 16 16 7 10 15 19 15 14 17 20 18 14 14 16 18 19 19 23 25 26 25 24 24 25 26 24 24 25 25 27 30 29 26 23 23 23 25 29 29 28 28 29 30 29 30 30 31 33 33 33 32 31 32
14 18 13 8 4 13 17 16 14 19 21 22 19 17 17 19 20 21 25 23 21 20 20 21 22 22 21 20 20 20 23 25 27 28 24 22 22 24 26 26 26 26 27 27 27 27 29 30 29 30 31 31 32 32
16 18 13 11 11 19 16 19 21 19 18 19 18 13 14 18 18 18 20 21 20 20 18 18 18 19 18 19 19 18 16 20 22 24 23 24 25 25 24 25 25 25 24 24 24 25 26 28 29 29 29 30 31 31
18 12 10 5 10 16 18 15 18 20 19 19 16 13 13 12 9 12 19 18 16 15 16 17 16 17 18 19 19 19 18 18 18 18 19 20 23 24 24 24 25 25 25 23 22 22 21 24 27 28 28 29 29 29
15 12 9 8 7 8 13 12 18 16 14 13 16 15 12 11 9 16 21 21 19 18 18 19 20 20 20 19 18 18 17 17 17 18 17 14 13 17 20 21 24 26 25 25 18 20 21 22 23 26 25 22 22 24
Lifted_Index
15 15 15 15 15 15 14 13 13 12 12 11 10 10 9 8 7 7 7 6 6 6 6 5 5 4 4 3 3 3 3 3 2 2 2 2 2 2 2 2 1 1 1 1 1 1 1 2 2 2 2 2 1 -0
15 15 15 15 15 15 14 14 13 13 12 12 11 10 10 9 8 7 7 7 6 6 6 5 5 4 4 4 4 4 4 3 3 2 2 2 2 2 2 2 1 1 1 1 1 1 1 1 1 1 2 2 1 -0
14 15 15 15 15 15 14 14 13 13 13 12 12 11 10 10 9 8 7 7 7 7 7 6 5 4 4 4 4 4 4 3 3 2 2 2 2 2 2 2 2 1 1 0 1 1 1 1 1 0 1 1 0 -0
14 14 15 15 15 14 14 13 13 13 13 12 12 11 11 10 10 9 8 7 7 8 8 7 5 5 4 4 4 4 4 3 3 3 2 2 2 2 2 2 2 2 1 1 1 1 1 1 0 0 0 1 1 0
15 15 15 15 14 14 13 13 13 12 12 12 12 11 11 11 10 9 8 7 7 7 7 7 6 4 4 4 4 3 3 3 3 3 2 2 2 2 2 3 3 2 2 1 1 1 1 1 1 1 1 1 1 0
16 16 16 15 15 14 14 13 12 12 12 12 11 11 11 11 10 9 8 6 5 6 6 7 5 4 3 3 3 3 3 3 3 2 2 2 2 2 3 3 3 2 2 1 1 1 1 1 1 1 1 1 0 -0
16 16 16 16 16 15 15 14 13 12 12 11 11 11 10 10 10 9 8 6 5 5 6 6 5 4 2 2 2 2 2 3 2 2 2 2 2 3 3 3 3 2 2 2 1 1 1 1 1 1 1 0 0 -0
16 16 16 16 16 15 15 14 14 13 12 11 11 10 10 10 9 9 8 7 6 6 6 6 5 4 3 2 2 2 2 3 3 3 3 3 3 3 3 2 2 2 2 1 1 1 1 1 1 1 1 1 0 0
16 16 16 16 15 15 15 14 14 13 12 11 10 9 8 8 8 7 6 5 5 5 5 5 5 4 3 2 2 2 2 3 3 3 3 3 3 2 2 3 3 2 2 1 1 1 1 1 1 1 1 1 1 1
16 16 15 15 15 15 14 14 13 13 12 11 9 8 7 6 6 5 5 5 5 5 5 5 4 4 3 2 2 2 2 2 3 3 3 3 2 2 2 2 2 2 2 1 1 1 1 1 1 1 2 2 2 2
15 15 15 15 14 14 14 13 13 12 11 10 9 7 6 6 5 5 5 5 4 4 4 4 3 3 2 1 1 1 2 2 2 2 2 2 2 1 2 2 2 2 2 2 2 2 2 1 1 1 2 2 3 2
15 15 14 14 14 13 13 13 12 12 11 10 10 9 7 7 6 5 4 4 4 3 3 3 2 2 1 1 1 1 1 1 1 1 1 1 1 1 1 2 2 3 3 3 3 3 2 2 1 1 2 3 3 3
14 14 14 13 13 13 12 12 12 11 11 10 10 9 8 6 5 4 3 3 3 2 2 2 2 1 1 1 1 1 1 1 1 1 1 1 1 1 2 2 3 3 4 4 4 3 3 2 2 2 2 3 3 3
13 13 13 12 12 12 11 11 11 11 10 9 8 7 6 5 4 3 3 3 2 2 2 2 2 2 1 1 1 1 0 0 0 0 1 1 1 2 2 2 3 4 4 5 4 4 4 3 3 3 3 3 3 3
12 12 12 11 11 11 10 10 10 10 10 9 8 7 5 4 3 3 2 2 2 2 2 2 2 2 1 1 1 1 0 0 0 0 1 2 2 2 2 3 3 4 4 4 5 5 5 4 4 4 4 4 4 4
11 11 11 11 10 10 10 10 10 10 9 9 8 7 5 4 3 2 2 2 2 2 2 2 2 2 2 1 1 1 0 0 0 0 1 2 3 2 2 3 3 3 4 4 5 5 5 5 5 5 5 5 5 5
11 11 10 10 10 9 9 9 9 9 9 9 8 7 5 5 4 3 2 2 2 2 2 2 2 2 2 2 1 1 1 0 0 1 2 2 2 2 3 3 3 3 4 4 4 5 5 5 5 5 5 5 6 6
10 10 10 10 10 9 9 9 8 8 9 8 8 7 6 5 4 4 3 2 2 2 2 2 2 2 2 2 1 1 1 1 1 2 2 2 2 2 2 3 3 3 3 4 4 4 5 5 5 5 5 5 5 6
10 9 9 9 9 9 9 8 8 8 8 8 7 6 6 5 5 4 3 3 2 2 2 2 3 3 2 2 1 1 1 1 1 2 2 2 2 2 2 3 3 3 3 3 3 4 4 5 5 5 5 5 6 6
9 9 9 9 9 9 9 8 8 7 7 7 7 6 6 6 5 5 4 3 3 3 3 3 3 2 2 1 1 1 0 1 2 2 2 2 2 2 2 2 3 3 3 3 3 3 4 5 5 5 6 6 6 6
9 9 8 8 9 9 9 8 8 7 7 7 7 6 6 6 5 5 4 3 3 3 3 3 3 2 2 1 1 1 1 1 1 2 2 2 1 1 1 2 2 2 3 3 3 3 4 5 5 6 6 6 7 7
9 9 9 9 9 9 8 8 8 8 7 7 7 7 7 6 6 5 4 4 4 4 3 3 3 2 2 1 1 0 1 1 1 1 1 2 1 1 1 2 2 2 2 2 3 4 4 5 6 6 6 6 7 7
9 9 9 9 8 8 8 7 7 7 7 7 7 7 7 6 6 5 4 4 3 3 3 3 3 3 2 2 1 0 1 0 0 1 1 2 2 2 2 2 2 2 2 3 3 4 4 5 5 5 6 6 6 7
7 7 7 7 7 7 6 6 5 5 5 5 5 5 5 5 4 4 4 3 2 1 2 2 2 2 2 1 1 0 0 0 0 1 1 2 2 3 3 3 3 3 3 4 4 4 4 4 4 5 5 5 5 5
5 5 4 4 4 4 4 3 3 3 3 3 3 3 2 2 2 3 2 2 1 0 0 1 1 2 2 1 1 1 0 0 1 1 2 2 2 3 3 3 3 4 4 4 4 3 4 4 4 4 4 4 4 4
3 3 2 2 2 2 2 2 1 1 1 1 1 1 1 1 1 2 2 2 1 1 0 0 0 1 1 1 1 1 1 1 1 1 2 2 3 3 3 3 3 4 4 4 4 3 3 4 4 4 4 4 4 5
2 1 1 1 1 1 1 0 0 0 1 1 1 1 0 0 1 2 3 3 3 2 1 0 0 1 1 1 1 1 1 1 1 2 2 3 3 3 3 3 3 4 4 4 4 4 4 4 4 4 4 4 5 5
1 1 1 1 1 1 0 0 0 1 1 1 1 1 1 2 3 4 5 5 5 4 2 1 1 1 1 1 1 1 1 2 2 2 3 3 3 4 4 4 4 4 5 5 5 5 4 4 4 4 5 5 5 5
2 2 1 1 1 1 1 1 1 1 1 2 2 2 2 4 5 5 6 6 6 5 3 2 2 2 2 2 2 2 2 2 2 2 2 3 3 4 4 4 5 5 5 5 5 5 6 6 6 6 6 6 6 6
2 2 2 2 1 1 1 2 2 2 2 2 2 3 3 5 6 6 7 7 6 5 4 3 3 3 3 3 3 3 3 3 3 3 3 3 3 4 4 5 5 6 6 7 7 7 7 7 7 7 7 6 6 6
3 3 3 2 2 2 2 2 2 2 2 2 3 3 4 5 6 7 7 7 7 6 6 5 5 5 5 5 4 4 4 4 5 5 5 5 5 6 6 7 8 8 9 9 9 9 9 8 8 8 7 7 7 7
3 3 3 3 3 3 3 2 2 2 2 3 3 4 4 5 5 7 8 8 8 7 7 7 7 7 8 8 7 7 7 7 7 8 8 8 8 9 10 11 11 11 11 11 11 11 10 10 9 8 8 8 8 8
3 3 4 4 3 3 3 3 2 2 3 3 4 4 5 5 5 7 9 9 8 8 9 9 9 9 9 10 10 9 9 9 9 10 10 10 11 12 12 13 13 13 12 12 12 11 11 10 10 9 9 8 8 8